Regional Weather Roundup
Issued by NWS Green Bay, WI

Home | Current Version | Previous Version | Graphics & Text | Print | Product List | Glossary Off
Versions: 1 2 3 4 5 6 7 8 9 10 11 12 13 14 15 16 17 18 19 20 21 22 23 24 25 26 27 28 29 30 31 32 33 34 35 36 37 38 39 40 41 42 43 44 45 46 47 48 49 50

000
ASUS43 KGRB 031411
RWRGRB

NORTH-CENTRAL AND NORTHEAST WISCONSIN REGIONAL WEATHER ROUNDUP
NATIONAL WEATHER SERVICE GREEN BAY WI
900 AM CDT WED JUN 03 2015

WIZ005-009-010>012-018-019-031500-
NORTH CENTRAL WISCONSIN

CITY           SKY/WX    TMP DP  RH WIND       PRES   REMARKS
IRONWOOD       CLOUDY    59  55  88 SE8       29.91F
MANITOWISH WTR CLOUDY    63  53  70 S10       29.97S
ARBOR VITAE    MOSUNNY   64  53  67 SW10G17   29.98S
EAGLE RIVER    MOSUNNY   64  49  58 SW8       29.99F
LAND O LAKES   MOSUNNY   64  50  61 SW5       30.00F
RHINELANDER    MOSUNNY   64  51  62 S10       30.00F
PHILLIPS       PTSUNNY   64  53  68 S13G21    29.95F
ANTIGO         SUNNY     61  52  71 S9        30.03F
TOMAHAWK       SUNNY     63  53  68 S5        29.99F
MERRILL        SUNNY     63  52  67 S7        30.00F
$$

WIZ013-073-031500-
NORTHEAST WISCONSIN

CITY           SKY/WX    TMP DP  RH WIND       PRES   REMARKS
IRON MOUNTAIN  SUNNY     62  46  55 S8        30.03S
MARINETTE      SUNNY     63  50  63 SW12      30.05F
OCONTO         SUNNY     64  52  64 SW8       30.06S
$$

WIZ017-030-035>037-045-031500-
CENTRAL WISCONSIN

CITY           SKY/WX    TMP DP  RH WIND       PRES   REMARKS
MEDFORD        SUNNY     62  54  75 S13       29.98F
WAUSAU         SUNNY     65  52  62 S9        29.99F
MOSINEE        SUNNY     63  52  67 S10       30.03F
MARSHFIELD     SUNNY     64  51  62 S14       30.00F
WISC RAPIDS    SUNNY     66  49  54 SW8       30.02F
STEVENS POINT  SUNNY     64  49  60 S9        30.02F
WAUPACA        SUNNY     66  53  62 S9        30.04F
SHAWANO        SUNNY     66  52  60 S7        30.05F
CLINTONVILLE   SUNNY     64  50  59 S10       30.04F
$$

WIZ038-039-048-051-031500-
FOX VALLEY

CITY           SKY/WX    TMP DP  RH WIND       PRES   REMARKS
NWS GREEN BAY  SUNNY     65  53  65 S12       30.06F
APPLETON       MOSUNNY   63  50  63 S12       30.07F
OSHKOSH        SUNNY     65  52  62 S14       30.05F
FOND DU LAC    SUNNY     65  53  65 S15       30.06F
$$

WIZ022-050-052-031500-
EAST CENTRAL WISCONSIN

CITY           SKY/WX    TMP DP  RH WIND       PRES   REMARKS
STURGEON BAY   SUNNY     61  48  63 S9        30.10R
MANITOWOC      SUNNY     56  49  77 SE7       30.09F
SHEBOYGAN      SUNNY     61  52  72 S10       30.08F
$$

LMZ563-521-522-541>543-031500-
LAKESHORE

STATION/POSITION TIME  TEMP    WIND        PRES    VSBY  WAVE
                       AIR SEA DIR/SP/G                  HT/PER
                 (UTC) (F)     (DEG/KT/KT) (MB)    (MI)  (FT/S)
SHEBOYGAN LKSHOR 1400   48     150/ 12/ 12 1019.3F
KEWAUNEE LKSHORE 1300   48     170/ 10/ 11 1018.3R
ALGOMA MARINA    1254          200/ 10/ 12   N/A
NORTHPORT PIER   1300   56     150/  8/ 12 1018.6R
N MID LAKE BUOY  1350   42 37  190/ 12/ 14 1019.6R         1/ 3
SISTER BAY LKSHO 1318   64     180/ 14/ 17   N/A
CHAMBERS ISLAND  1300   59     160/  5/ 13 1018.3S
MENOMINEE LKSHOR 1300   60     190/  9/ 14 1018.6S
$$


USA.gov is the U.S. government's official web portal to all federal, state and local government web resources and services.